GW3525 Weather Reports


Display with metric or nautical units.
time (UTC)temp
F
wind
direction
speed
MPH
gust
MPH
rain 1hr
in
rain 24hr
in
rain mn
in
humidity
%
barometer
mb
20260906123614 69 29 2.0 3.0 0.00 0.00 0.00 98 1017.8
20260906123109 69 52 2.0 4.0 0.00 0.00 0.00 98 1017.9
20260906122603 68 21 4.0 4.0 0.00 0.00 0.00 99 1017.9
20260906122058 68 82 0.0 3.0 0.00 0.00 0.00 99 1018.1
20260906121554 68 40 2.0 4.0 0.00 0.00 0.00 99 1018.0
20260906121051 67 25 1.0 4.0 0.00 0.00 0.00 99 1017.8
20260906120546 67 2 0.0 5.0 0.00 0.00 0.00 99 1017.7
20260906120043 67 21 3.0 4.0 0.00 0.00 0.00 99 1017.8
20260906115542 67 50 3.0 3.0 0.00 0.00 0.00 99 1017.6
20260906115037 67 14 2.0 3.0 0.00 0.00 0.00 99 1017.3
20260906114531 67 45 2.0 3.0 0.00 0.00 0.00 99 1017.3
20260906114022 67 353 1.0 3.0 0.00 0.00 0.00 99 1017.3
20260906113520 67 74 2.0 3.0 0.00 0.00 0.00 99 1017.4
20260906113016 67 8 3.0 4.0 0.00 0.00 0.00 99 1017.1
20260906112511 67 27 3.0 3.0 0.00 0.00 0.00 99 1016.8
20260906112007 67 34 1.0 4.0 0.00 0.00 0.00 99 1016.7
20260906111501 67 49 2.0 3.0 0.00 0.00 0.00 99 1017.0
20260906110956 67 9 3.0 3.0 0.00 0.00 0.00 99 1016.7
20260906110450 67 14 2.0 3.0 0.00 0.00 0.00 99 1016.6
20260906105949 67 354 4.0 4.0 0.00 0.00 0.00 99 1016.8
20260906105445 67 317 2.0 4.0 0.00 0.00 0.00 99 1016.8
20260906104942 67 317 2.0 3.0 0.00 0.00 0.00 99 1016.7
20260906104440 67 351 2.0 3.0 0.00 0.00 0.00 99 1016.5
20260906103939 67 12 2.0 4.0 0.00 0.00 0.00 99 1016.3
20260906103437 67 336 4.0 5.0 0.00 0.00 0.00 99 1016.7
20260906102932 67 19 2.0 4.0 0.00 0.00 0.00 99 1016.5
20260906102427 67 351 0.0 3.0 0.00 0.00 0.00 99 1016.5
20260906101922 67 331 1.0 4.0 0.00 0.00 0.00 99 1016.6
20260906101417 67 28 2.0 3.0 0.00 0.00 0.00 99 1016.3
20260906100912 67 32 2.0 5.0 0.00 0.00 0.00 99 1016.6
20260906100412 67 64 2.0 4.0 0.00 0.00 0.00 99 1016.3
20260906095907 67 38 2.0 3.0 0.00 0.00 0.00 99 1016.2
20260906095403 67 3 1.0 3.0 0.00 0.00 0.00 99 1016.1
20260906094902 68 38 0.0 5.0 0.00 0.00 0.00 99 1016.1
20260906094356 68 325 2.0 3.0 0.00 0.00 0.00 99 1016.1
20260906093853 68 3 0.0 5.0 0.00 0.00 0.00 99 1016.1
20260906093348 68 16 2.0 4.0 0.00 0.00 0.00 99 1016.1
20260906092843 68 0 2.0 3.0 0.00 0.00 0.00 99 1016.2
20260906092337 68 358 4.0 4.0 0.00 0.00 0.00 99 1016.2
20260906091833 68 17 2.0 4.0 0.00 0.00 0.00 99 1016.0
20260906091329 68 315 0.0 4.0 0.00 0.00 0.00 99 1016.1
20260906090826 68 351 0.0 4.0 0.00 0.00 0.00 99 1015.9
20260906090325 68 356 2.0 2.0 0.00 0.00 0.00 99 1016.1
20260906085824 68 304 0.0 4.0 0.00 0.00 0.00 99 1016.0
20260906085318 68 85 0.0 3.0 0.00 0.00 0.00 98 1016.1
20260906084813 68 126 0.0 2.0 0.00 0.00 0.00 98 1015.9
20260906084312 69 10 1.0 2.0 0.00 0.00 0.00 98 1016.0
20260906083807 69 8 2.0 2.0 0.00 0.00 0.00 98 1016.0
20260906083303 69 5 2.0 3.0 0.00 0.00 0.00 97 1015.8
20260906082757 69 5 0.0 2.0 0.00 0.00 0.00 97 1016.2
20260906082252 69 49 2.0 3.0 0.00 0.00 0.00 97 1016.1
20260906081748 69 20 2.0 3.0 0.00 0.00 0.00 97 1016.0
20260906081243 69 78 2.0 4.0 0.00 0.00 0.00 97 1016.2
20260906080734 69 6 2.0 4.0 0.00 0.00 0.00 97 1016.2
20260906080230 69 5 2.0 4.0 0.00 0.00 0.00 96 1016.1
20260906075729 69 24 2.0 4.0 0.00 0.00 0.00 96 1016.1
20260906075224 69 349 1.0 4.0 0.00 0.00 0.00 96 1016.1
20260906074719 70 15 2.0 4.0 0.00 0.00 0.00 96 1016.1
20260906074219 70 73 2.0 4.0 0.00 0.00 0.00 96 1016.2
20260906073713 70 21 0.0 4.0 0.00 0.00 0.00 96 1016.1
20260906073208 70 336 5.0 5.0 0.00 0.00 0.00 96 1016.1
20260906072704 70 356 4.0 4.0 0.00 0.00 0.00 95 1016.0
20260906072159 70 9 3.0 3.0 0.00 0.00 0.00 95 1016.3
20260906071656 70 4 2.0 4.0 0.00 0.00 0.00 95 1016.2
20260906071154 70 336 0.0 4.0 0.00 0.00 0.00 95 1016.3
20260906070652 70 8 2.0 4.0 0.00 0.00 0.00 95 1016.6
20260906070147 70 11 2.0 5.0 0.00 0.00 0.00 95 1016.2
20260906065647 70 55 0.0 4.0 0.00 0.00 0.00 94 1016.3
20260906065142 71 19 2.0 4.0 0.00 0.00 0.00 94 1016.3
20260906064637 71 56 3.0 6.0 0.00 0.00 0.00 94 1016.3
20260906064132 71 37 0.0 4.0 0.00 0.00 0.00 94 1016.5
20260906063627 71 7 2.0 4.0 0.00 0.00 0.00 94 1016.6
20260906063118 71 64 1.0 3.0 0.00 0.00 0.00 93 1016.3
20260906062614 71 44 2.0 4.0 0.00 0.00 0.00 93 1016.3
20260906062112 71 269 1.0 4.0 0.00 0.00 0.00 93 1016.3
20260906061609 71 55 2.0 4.0 0.00 0.00 0.00 93 1016.5
20260906061108 71 12 2.0 4.0 0.00 0.00 0.00 93 1016.6
20260906060605 71 29 2.0 4.0 0.00 0.00 0.00 93 1016.6
20260906055557 71 347 2.0 4.0 0.00 0.00 0.00 93 1016.3
20260906055052 71 15 1.0 4.0 0.00 0.00 0.00 93 1016.2
20260906054547 71 52 2.0 3.0 0.00 0.00 0.00 92 1016.1
20260906054042 72 16 0.0 5.0 0.00 0.00 0.00 92 1015.9
20260906053538 72 29 2.0 5.0 0.00 0.00 0.00 92 1016.0
20260906053034 72 18 2.0 4.0 0.00 0.00 0.00 92 1016.1
20260906052529 72 8 2.0 3.0 0.00 0.00 0.00 92 1016.2
20260906052026 72 34 4.0 5.0 0.00 0.00 0.00 92 1016.1
20260906051521 72 358 3.0 5.0 0.00 0.00 0.00 92 1016.1
20260906051017 72 49 2.0 6.0 0.00 0.00 0.00 92 1016.0
20260906050512 72 357 4.0 4.0 0.00 0.00 0.00 92 1016.0
20260906050006 72 105 2.0 4.0 0.00 0.00 0.00 92 1015.9
20260906045505 72 10 0.0 5.0 0.00 0.00 0.00 91 1016.0
20260906045001 72 28 2.0 4.0 0.00 0.00 0.00 91 1015.8
20260906044455 72 87 1.0 5.0 0.00 0.00 0.00 91 1015.9
20260906043951 73 3 3.0 5.0 0.00 0.00 0.00 90 1015.7
20260906043447 73 5 3.0 6.0 0.00 0.00 0.00 90 1015.8
20260906042943 73 73 2.0 4.0 0.00 0.00 0.00 89 1015.6
20260906042442 73 25 4.0 4.0 0.00 0.00 0.00 89 1015.4
20260906041936 73 10 2.0 3.0 0.00 0.00 0.00 89 1015.4
20260906041432 73 29 2.0 4.0 0.00 0.00 0.00 88 1015.4
20260906040926 73 354 3.0 7.0 0.00 0.00 0.00 88 1015.5
20260906040422 73 12 2.0 7.0 0.00 0.00 0.00 88 1015.5
20260906035917 73 47 3.0 6.0 0.00 0.00 0.00 88 1015.2
20260906035412 73 341 4.0 6.0 0.00 0.00 0.00 88 1015.3
20260906034908 73 56 5.0 6.0 0.00 0.00 0.00 88 1014.9
20260906034402 73 349 4.0 6.0 0.00 0.00 0.00 88 1015.1
20260906033858 73 49 5.0 5.0 0.00 0.00 0.00 88 1015.3
20260906033357 73 76 4.0 6.0 0.00 0.00 0.00 88 1015.1
20260906032853 73 73 1.0 5.0 0.00 0.00 0.00 88 1015.1
20260906032349 73 115 2.0 6.0 0.00 0.00 0.00 88 1015.2
20260906031844 73 131 3.0 7.0 0.00 0.00 0.00 88 1015.1
20260906031339 73 63 7.0 7.0 0.00 0.00 0.00 88 1015.1
20260906030839 73 12 3.0 7.0 0.00 0.00 0.00 88 1015.0
20260906030335 73 86 2.0 7.0 0.00 0.00 0.00 88 1015.0
20260906025829 73 45 2.0 7.0 0.00 0.00 0.00 88 1015.1
20260906025323 73 79 2.0 10.0 0.00 0.00 0.00 88 1015.0
20260906024822 73 16 4.0 12.0 0.00 0.00 0.00 88 1015.1
20260906024321 73 16 4.0 7.0 0.00 0.00 0.00 88 1015.1
20260906023817 73 82 3.0 4.0 0.00 0.00 0.00 88 1014.9
20260906023312 73 325 3.0 3.0 0.00 0.00 0.00 89 1014.9
20260906022808 73 101 0.0 3.0 0.00 0.00 0.00 89 1014.9
20260906022306 73 58 3.0 6.0 0.00 0.00 0.00 89 1015.3
20260906021759 73 302 2.0 7.0 0.00 0.00 0.00 89 1015.0
20260906021258 73 25 4.0 7.0 0.00 0.00 0.00 89 1015.1
20260906020752 73 45 3.0 8.0 0.00 0.00 0.00 89 1015.2
20260906020246 73 44 6.0 11.0 0.00 0.00 0.00 88 1015.1
20260906015741 73 20 3.0 5.0 0.00 0.00 0.00 88 1014.9
20260906015239 73 53 6.0 8.0 0.00 0.00 0.00 87 1014.9
20260906014734 73 94 2.0 9.0 0.00 0.00 0.00 87 1015.1
20260906014230 73 17 3.0 8.0 0.00 0.00 0.00 87 1015.0
20260906013726 73 19 5.0 9.0 0.00 0.00 0.00 87 1015.1
20260906013226 73 46 3.0 7.0 0.00 0.00 0.00 87 1015.2
20260906012721 73 44 3.0 10.0 0.00 0.00 0.00 88 1014.8
20260906012216 73 30 7.0 7.0 0.00 0.00 0.00 88 1014.9
20260906011711 73 54 3.0 6.0 0.00 0.00 0.00 89 1014.9
20260906011206 73 0 3.0 5.0 0.00 0.00 0.00 89 1014.9
20260906010701 73 36 7.0 7.0 0.00 0.00 0.00 90 1015.1
20260906010158 73 52 4.0 10.0 0.00 0.00 0.00 89 1014.9
20260906005657 73 343 0.0 6.0 0.00 0.00 0.00 89 1015.1
20260906005156 74 1 2.0 3.0 0.00 0.00 0.00 89 1015.0
20260906004655 74 314 2.0 10.0 0.00 0.00 0.00 89 1014.8
20260906004150 74 62 2.0 8.0 0.00 0.00 0.00 89 1014.8
20260906003646 75 66 6.0 11.0 0.00 0.00 0.00 88 1014.9
20260906003142 75 70 3.0 6.0 0.00 0.00 0.00 87 1014.7
20260906002636 75 12 3.0 7.0 0.00 0.00 0.00 87 1014.7
20260906002131 76 54 4.0 4.0 0.00 0.00 0.00 87 1014.5
20260906001626 76 348 5.0 5.0 0.00 0.00 0.00 86 1014.4
20260906001126 76 66 4.0 7.0 0.00 0.00 0.00 86 1014.4
20260906000622 76 42 5.0 8.0 0.00 0.00 0.00 86 1014.5
20260906000117 77 20 5.0 11.0 0.00 0.00 0.00 85 1014.2
20260905235616 77 32 3.0 10.0 0.00 0.00 0.00 85 1014.2
20260905235111 78 53 3.0 5.0 0.00 0.00 0.00 84 1013.9
20260905234607 78 2 4.0 6.0 0.00 0.00 0.00 84 1013.7
20260905234102 78 21 4.0 6.0 0.00 0.00 0.00 84 1013.8
20260905233601 79 359 3.0 7.0 0.00 0.00 0.00 83 1013.9
20260905233056 79 14 4.0 6.0 0.00 0.00 0.00 83 1013.9
20260905232551 79 4 2.0 4.0 0.00 0.00 0.00 82 1013.9
20260905232047 80 21 1.0 4.0 0.00 0.00 0.00 82 1014.0
20260905231542 80 344 2.0 5.0 0.00 0.00 0.00 80 1014.0
20260905231038 81 13 0.0 6.0 0.00 0.00 0.00 78 1013.6
20260905230537 82 24 2.0 7.0 0.00 0.00 0.00 75 1013.7
20260905230036 82 20 4.0 5.0 0.00 0.00 0.00 74 1013.8
20260905225526 82 52 3.0 7.0 0.00 0.00 0.00 73 1013.7
20260905225021 83 15 5.0 7.0 0.00 0.00 0.00 73 1013.6
20260905224520 83 335 4.0 6.0 0.00 0.00 0.00 74 1013.5
20260905224020 82 278 2.0 4.0 0.00 0.00 0.00 75 1013.5
20260905223519 82 41 0.0 5.0 0.00 0.00 0.00 75 1013.3
20260905223014 83 4 4.0 6.0 0.00 0.00 0.00 73 1013.3
20260905222513 83 60 3.0 4.0 0.00 0.00 0.00 73 1013.4
20260905222008 82 303 2.0 7.0 0.00 0.00 0.00 74 1013.5
20260905221505 82 299 2.0 12.0 0.00 0.00 0.00 74 1013.3
20260905221001 82 353 3.0 10.0 0.00 0.00 0.00 73 1013.3
20260905220457 83 1 4.0 7.0 0.00 0.00 0.00 73 1013.3
20260905215955 83 7 11.0 11.0 0.00 0.00 0.00 74 1013.3
20260905215451 83 325 4.0 7.0 0.00 0.00 0.00 75 1013.0
20260905214948 83 339 4.0 8.0 0.00 0.00 0.00 74 1013.3
20260905214443 83 47 5.0 7.0 0.00 0.00 0.00 74 1013.4
20260905213937 83 74 4.0 8.0 0.00 0.00 0.00 75 1013.4
20260905213433 82 297 2.0 7.0 0.00 0.00 0.00 75 1013.6
20260905212928 83 307 3.0 9.0 0.00 0.00 0.00 76 1013.3
20260905212423 83 305 5.0 7.0 0.00 0.00 0.00 75 1013.5
20260905211922 83 331 7.0 16.0 0.00 0.00 0.00 75 1013.5
20260905211418 83 354 5.0 6.0 0.00 0.00 0.00 76 1013.6
20260905210915 83 33 4.0 10.0 0.00 0.00 0.00 76 1013.4
20260905210415 83 343 7.0 7.0 0.00 0.00 0.00 75 1013.4
20260905205914 82 0 7.0 9.0 0.00 0.00 0.00 77 1013.5
20260905205409 82 6 3.0 6.0 0.00 0.00 0.00 78 1013.7
20260905204907 82 355 5.0 12.0 0.00 0.00 0.00 78 1013.8
20260905204404 82 41 2.0 10.0 0.00 0.00 0.00 79 1013.7
20260905203903 83 8 3.0 8.0 0.00 0.00 0.00 78 1013.8
20260905203358 82 358 5.0 6.0 0.00 0.00 0.00 79 1014.0
20260905202854 82 1 6.0 10.0 0.00 0.00 0.00 78 1013.8
20260905202349 83 358 5.0 7.0 0.00 0.00 0.00 77 1013.8
20260905201844 83 328 2.0 7.0 0.00 0.00 0.00 78 1014.2
20260905201340 82 338 7.0 10.0 0.00 0.00 0.00 78 1014.0
20260905200834 82 33 4.0 10.0 0.00 0.00 0.00 80 1013.6
20260905200330 84 9 3.0 7.0 0.00 0.00 0.00 77 1013.8
20260905195827 82 349 4.0 7.0 0.00 0.00 0.00 79 1013.6
20260905195322 83 28 5.0 8.0 0.00 0.00 0.00 77 1013.7
20260905194819 84 17 9.0 10.0 0.00 0.00 0.00 77 1013.6
20260905194313 83 339 2.0 7.0 0.00 0.00 0.00 78 1013.7
20260905193812 83 348 1.0 6.0 0.00 0.00 0.00 79 1013.9
20260905193307 83 0 2.0 5.0 0.00 0.00 0.00 78 1013.7
20260905192803 84 32 4.0 9.0 0.00 0.00 0.00 77 1013.7
20260905192259 86 3 4.0 5.0 0.00 0.00 0.00 75 1013.7
20260905191758 86 325 4.0 10.0 0.00 0.00 0.00 75 1013.8
20260905191256 85 1 3.0 6.0 0.00 0.00 0.00 76 1013.7
20260905190755 85 31 2.0 4.0 0.00 0.00 0.00 78 1013.7
20260905190254 85 358 2.0 9.0 0.00 0.00 0.00 76 1013.5
20260905185753 85 1 6.0 8.0 0.00 0.00 0.00 76 1013.8
20260905185248 85 338 0.0 11.0 0.00 0.00 0.00 76 1013.7
20260905184742 85 64 3.0 7.0 0.00 0.00 0.00 77 1013.6
20260905184241 85 72 2.0 8.0 0.00 0.00 0.00 79 1013.7
20260905183740 85 57 5.0 9.0 0.00 0.00 0.00 76 1013.9
20260905183236 84 10 3.0 9.0 0.00 0.00 0.00 78 1014.0
20260905182730 84 4 6.0 7.0 0.00 0.00 0.00 78 1013.6
20260905182224 85 12 6.0 6.0 0.00 0.00 0.00 77 1013.8
20260905181714 85 354 5.0 8.0 0.00 0.00 0.00 78 1013.8
20260905181213 86 267 1.0 6.0 0.00 0.00 0.00 76 1013.7
20260905180708 87 312 4.0 7.0 0.00 0.00 0.00 75 1013.6
20260905180203 85 345 3.0 4.0 0.00 0.00 0.00 75 1013.6
20260905175703 85 346 4.0 12.0 0.00 0.00 0.00 76 1013.6
20260905175157 86 354 2.0 7.0 0.00 0.00 0.00 75 1013.8
20260905174653 85 358 2.0 5.0 0.00 0.00 0.00 77 1013.7
20260905174149 86 349 5.0 8.0 0.00 0.00 0.00 76 1013.8
20260905173644 86 348 3.0 6.0 0.00 0.00 0.00 75 1013.8
20260905173140 85 22 0.0 5.0 0.00 0.00 0.00 79 1013.8
20260905172639 85 297 3.0 4.0 0.00 0.00 0.00 78 1013.5
20260905172133 84 64 3.0 7.0 0.00 0.00 0.00 79 1013.6
20260905171630 85 28 4.0 7.0 0.00 0.00 0.00 77 1013.7
20260905171126 85 7 3.0 5.0 0.00 0.00 0.00 76 1013.7
20260905170622 86 319 3.0 7.0 0.00 0.00 0.00 77 1014.0
20260905170117 86 53 4.0 6.0 0.00 0.00 0.00 77 1013.8
20260905165611 85 338 3.0 6.0 0.00 0.00 0.00 77 1014.0
20260905165106 86 341 3.0 5.0 0.00 0.00 0.00 77 1014.1
20260905164601 85 309 2.0 5.0 0.00 0.00 0.00 78 1014.0
20260905164055 85 327 0.0 6.0 0.00 0.00 0.00 78 1013.8
20260905163552 85 354 4.0 7.0 0.00 0.00 0.00 78 1014.3
20260905163047 84 45 2.0 8.0 0.00 0.00 0.00 79 1013.8
20260905162544 85 24 3.0 7.0 0.00 0.00 0.00 78 1013.8
20260905162037 85 63 3.0 5.0 0.00 0.00 0.00 79 1013.9
20260905161532 84 35 3.0 6.0 0.00 0.00 0.00 79 1013.9
20260905161030 84 351 6.0 7.0 0.00 0.00 0.00 79 1013.9
20260905160529 85 355 4.0 6.0 0.00 0.00 0.00 79 1014.0
20260905160028 84 318 2.0 4.0 0.00 0.00 0.00 81 1014.1
20260905155528 83 9 3.0 7.0 0.00 0.00 0.00 81 1014.0
20260905155026 83 342 4.0 5.0 0.00 0.00 0.00 82 1014.0
20260905154522 82 23 2.0 10.0 0.00 0.00 0.00 82 1014.0
20260905154018 83 110 1.0 7.0 0.00 0.00 0.00 82 1013.8
20260905153514 82 29 0.0 6.0 0.00 0.00 0.00 82 1013.8
20260905153013 82 10 1.0 5.0 0.00 0.00 0.00 83 1013.9
20260905152508 82 18 5.0 7.0 0.00 0.00 0.00 84 1013.9
20260905152003 81 24 4.0 6.0 0.00 0.00 0.00 85 1013.6
20260905151458 81 355 3.0 6.0 0.00 0.00 0.00 86 1013.8
20260905150953 81 321 5.0 7.0 0.00 0.00 0.00 85 1013.7
20260905150448 80 24 6.0 6.0 0.00 0.00 0.00 87 1013.6
20260905145944 80 108 2.0 5.0 0.00 0.00 0.00 87 1013.6
20260905145439 80 354 2.0 7.0 0.00 0.00 0.00 89 1013.6
20260905144939 79 59 2.0 4.0 0.00 0.00 0.00 89 1013.5
20260905144434 78 172 2.0 6.0 0.00 0.00 0.00 91 1013.5
20260905143933 78 26 4.0 7.0 0.00 0.00 0.00 91 1013.3
20260905143432 77 60 5.0 6.0 0.00 0.00 0.00 92 1013.4
20260905142927 77 87 4.0 5.0 0.00 0.00 0.00 93 1013.6
20260905142426 77 64 2.0 6.0 0.00 0.00 0.00 93 1013.3
20260905141922 77 11 2.0 7.0 0.00 0.00 0.00 95 1013.3
20260905141416 77 353 3.0 6.0 0.00 0.00 0.00 94 1013.4
20260905140913 77 91 2.0 6.0 0.00 0.00 0.00 94 1013.2
20260905140408 78 57 4.0 6.0 0.00 0.00 0.00 93 1013.4
20260905135906 78 87 2.0 6.0 0.00 0.00 0.00 92 1012.9
20260905135401 79 22 4.0 7.0 0.00 0.00 0.00 92 1013.0
20260905134857 79 19 4.0 8.0 0.00 0.00 0.00 92 1013.0
20260905134350 79 41 2.0 3.0 0.00 0.00 0.00 92 1012.7
20260905133844 79 31 2.0 4.0 0.00 0.00 0.00 92 1012.9
20260905133340 78 353 3.0 5.0 0.00 0.00 0.00 93 1013.0
20260905132839 78 72 4.0 6.0 0.00 0.00 0.00 94 1013.1
20260905132334 78 58 2.0 4.0 0.00 0.00 0.00 94 1013.1
20260905131829 78 351 2.0 4.0 0.00 0.00 0.00 94 1013.3
20260905131325 78 344 4.0 7.0 0.00 0.00 0.00 94 1013.3
20260905130820 78 5 2.0 5.0 0.00 0.00 0.00 94 1013.2
20260905130318 77 311 2.0 5.0 0.00 0.00 0.00 95 1013.1
20260905125814 77 30 2.0 5.0 0.00 0.00 0.00 95 1012.6
20260905125309 77 0 4.0 4.0 0.00 0.00 0.00 97 1012.7
20260905124805 76 354 1.0 4.0 0.00 0.00 0.00 98 1012.6
20260905124301 76 347 3.0 4.0 0.00 0.00 0.00 98 1012.5